This demonstration page uses our WeatherBlox Daily Observations layout. Learn more.

36.17497, -115.13722

Hourly Observations for September 7, 2018

Temp ( °F °C ) Dew Point ( °F °C ) Humidity (%) Winds ( mph kmh ) Pressure ( in mb ) Visibility ( mi km ) Precip ( " mm )
12:53 am 00:53 Clear 83 28.3 45 7.2 26 26 NNW 5 7 29.94 1014 10 16.09344 0 0
1:53 am 01:53 Clear 82 27.8 45 7.2 27 27 N 5 7 29.94 1014 10 16.09344 0 0
2:53 am 02:53 Clear 80 26.7 46 7.8 30 30 WNW 3 6 29.94 1014 10 16.09344 0 0
3:53 am 03:53 Clear 79 26.1 46 7.8 31 31 NNW 5 7 29.94 1014 10 16.09344 0 0
4:53 am 04:53 Clear 79 26.1 46 7.8 31 31 WNW 6 9 29.94 1014 10 16.09344 0 0
5:53 am 05:53 Clear 78 25.6 44 6.7 30 30 NNW 6 9 29.94 1014 10 16.09344 0 0
6:53 am 06:53 Sunny 78 25.6 45 7.2 31 31 NW 6 9 29.97 1015 10 16.09344 0 0
7:53 am 07:53 Sunny 86 30 43 6.1 22 22 NNW 5 7 29.97 1015 10 16.09344 0 0
8:53 am 08:53 Sunny 88 31.1 44 6.7 22 22 SSE 5 7 30 1016 10 16.09344 0 0
9:53 am 09:53 Sunny 91 32.8 44 6.7 20 20 Calm 30 1016 10 16.09344 0 0
10:53 am 10:53 Sunny 94 34.4 43 6.1 17 17 N 5 7 30 1016 10 16.09344 0 0
11:53 am 11:53 Sunny 97 36.1 42 5.6 15 15 SE 8 13 29.97 1015 10 16.09344 0 0
12:53 pm 12:53 Sunny 99 37.2 43 6.1 15 15 ESE 8 13 29.94 1014 10 16.09344 0 0
1:53 pm 13:53 Sunny 100 37.8 39 3.9 12 12 N 5 7 29.91 1013 10 16.09344 0 0
2:53 pm 14:53 Sunny 101 38.3 39 3.9 12 12 SSE 6 9 29.88 1012 10 16.09344 0 0
3:53 pm 15:53 Sunny 103 39.4 39 3.9 11 11 E 7 11 29.88 1012 10 16.09344 0 0
4:53 pm 16:53 Sunny 103 39.4 40 4.4 11 11 NE 6 9 29.85 1011 10 16.09344 0 0
5:53 pm 17:53 Sunny 101 38.3 39 3.9 12 12 SE 5 7 29.85 1011 10 16.09344 0 0
6:53 pm 18:53 Sunny 99 37.2 38 3.3 12 12 ESE 3 6 29.85 1011 10 16.09344 0 0
7:53 pm 19:53 Clear 97 36.1 37 2.8 12 12 E 3 6 29.85 1011 10 16.09344 0 0
8:53 pm 20:53 Clear 96 35.6 36 2.2 12 12 Calm 29.85 1011 10 16.09344 0 0
9:53 pm 21:53 Clear 90 32.2 45 7.2 21 21 N 5 7 29.85 1011 10 16.09344 0 0
10:53 pm 22:53 Clear 88 31.1 45 7.2 22 22 NNW 6 9 29.85 1011 10 16.09344 0 0
11:53 pm 23:53 Clear 86 30 43 6.1 22 22 NNW 5 7 29.85 1011 10 16.09344 0 0

Powered by AerisWeather